ECMWFFLT1_925_thetae_105.txt.gz
Theta_e
331 330 330 329 329 328 327 327 327 327 327 326 326 326 326 327 327 327 328 328 328 328 328 328 329 329 329 329 329 329 329 329 329 330 331 330 331 331 330 330 330 330 330 330 330 330 331 332 332 332 331 331 330 330 330 330 330 330 330 329 329 330 329
329 328 328 328 328 327 327 327 326 325 324 324 324 324 324 325 325 326 327 328 327 327 328 328 328 328 329 329 328 329 328 328 329 329 329 329 329 329 329 330 330 329 329 329 330 330 331 331 332 332 332 331 331 330 330 330 330 330 330 330 330 329 329
327 326 326 326 326 326 326 325 324 323 322 322 322 322 323 324 324 324 325 326 326 327 327 327 327 327 327 327 327 327 328 328 328 328 328 328 328 328 329 330 329 329 330 329 330 330 331 331 331 331 331 331 331 331 330 330 330 330 331 330 330 330 329
325 325 325 325 324 325 324 323 322 322 321 321 321 321 322 322 323 323 323 324 324 324 324 324 324 325 326 326 325 326 327 327 327 328 328 328 328 328 328 329 329 330 330 330 330 331 331 331 331 331 331 330 329 330 330 331 330 330 330 330 330 330 329
323 323 323 323 322 322 322 321 321 321 320 320 319 319 320 320 321 321 321 322 322 322 321 322 322 323 324 324 324 324 325 326 327 327 328 328 329 329 329 329 329 330 330 330 331 331 331 331 331 331 331 330 330 329 329 330 331 330 330 330 331 330 329
320 320 320 320 319 319 319 319 319 318 318 318 318 317 317 318 319 319 319 319 319 319 319 320 320 320 321 322 323 323 324 325 326 326 327 327 328 328 328 329 329 330 331 330 331 331 331 331 331 331 331 331 331 330 330 330 331 330 331 331 331 330 330
317 317 317 316 316 316 316 316 316 316 316 316 315 315 315 316 317 317 317 317 317 317 317 318 318 318 319 320 320 320 321 322 323 324 324 325 326 326 326 327 328 329 329 329 328 329 330 330 330 331 331 331 331 330 329 329 330 331 331 331 331 331 330
314 314 314 314 314 314 314 314 313 313 314 313 313 314 314 314 315 315 316 316 315 315 316 316 316 316 317 317 317 317 318 318 319 320 321 322 324 325 325 326 326 327 328 328 328 328 329 329 330 330 331 331 331 330 329 329 330 330 330 331 331 331 330
312 312 312 312 312 312 312 312 312 312 312 312 312 312 312 313 313 313 314 314 314 314 314 314 314 314 314 314 315 315 315 315 316 317 318 319 321 322 324 325 326 327 328 328 329 328 329 329 329 329 329 330 331 331 330 329 330 330 330 330 330 331 330
311 310 310 310 310 310 310 310 310 310 310 310 311 310 310 310 310 311 311 311 311 312 312 312 312 311 311 311 311 311 311 312 313 314 314 315 316 318 320 321 324 326 326 326 327 328 328 328 329 330 329 329 330 331 331 330 331 330 330 330 330 330 330
309 308 308 309 309 309 309 308 307 308 308 308 309 309 308 308 308 308 308 307 308 308 308 308 308 307 307 307 307 308 308 309 309 311 312 313 313 314 315 317 319 323 324 325 326 327 328 328 329 329 329 329 329 330 330 330 331 330 329 330 330 329 330
307 306 306 307 306 306 306 305 305 305 306 306 307 307 306 306 306 305 305 304 304 304 304 304 304 304 304 304 305 306 306 306 307 308 309 310 311 311 312 313 315 318 320 323 324 325 326 328 328 328 329 329 329 329 329 330 331 330 328 328 328 329 329
305 304 304 304 304 303 303 304 304 304 304 304 305 305 304 304 304 303 303 302 302 302 302 302 302 303 303 304 304 305 306 306 306 307 308 309 309 309 310 311 312 314 316 318 321 324 326 327 328 328 328 329 329 329 329 329 330 330 328 327 328 328 329
303 303 303 303 303 303 303 303 303 303 303 302 303 303 303 303 302 302 302 302 301 302 301 302 302 302 302 303 303 305 305 305 306 306 307 308 308 309 309 310 311 312 313 315 317 320 323 325 327 328 328 328 328 329 329 329 329 329 329 328 327 327 328
303 302 302 302 302 302 303 302 303 303 302 301 302 302 302 302 302 301 301 301 301 301 301 301 301 301 301 301 302 304 304 304 305 305 305 306 307 307 308 309 310 311 312 313 315 317 319 322 325 326 328 328 328 328 329 329 329 329 328 328 327 327 327
302 302 302 302 302 302 302 302 302 302 301 300 301 302 301 301 301 301 301 301 301 301 301 301 300 300 300 300 301 302 303 303 304 305 305 306 306 307 308 308 309 310 311 312 314 315 317 320 322 323 325 327 328 328 328 328 328 328 328 328 327 326 327
302 301 301 301 301 301 301 301 301 301 301 300 301 301 301 301 300 300 301 301 301 301 300 300 300 299 300 300 300 301 302 303 303 304 305 306 306 307 308 308 309 309 310 311 313 314 315 316 317 318 321 323 325 327 328 328 328 328 328 328 327 326 326
301 301 301 300 300 300 301 301 301 301 300 300 300 300 300 300 300 300 300 300 300 300 300 299 299 299 299 299 300 301 302 302 304 305 305 306 306 306 307 307 307 307 308 309 310 311 311 311 312 314 316 318 320 323 326 328 328 328 328 328 327 326 326
301 301 300 300 300 300 300 300 300 300 300 299 299 299 300 300 300 300 300 300 300 299 299 299 298 298 299 299 300 301 302 303 304 305 305 305 305 305 305 305 305 305 305 306 307 307 307 307 308 309 311 313 316 320 323 326 328 328 328 328 328 326 326
301 300 299 299 299 299 299 299 299 299 299 299 299 299 299 299 299 299 299 299 299 299 298 298 298 298 298 299 300 301 302 303 303 303 303 303 303 303 303 303 303 304 304 305 305 304 304 304 305 306 307 309 313 316 319 323 327 328 328 328 327 327 326
300 299 299 299 299 299 299 299 299 299 299 299 299 298 298 299 299 298 298 298 298 298 297 297 297 297 298 299 300 301 302 302 302 302 302 302 302 302 302 302 302 303 303 303 302 302 302 302 302 303 304 306 308 310 314 319 324 328 328 328 327 327 326
299 299 299 299 299 299 299 299 299 299 299 299 298 298 297 298 298 298 298 298 298 297 296 296 296 296 297 298 299 300 301 301 301 301 301 301 301 301 301 301 301 302 302 301 300 300 300 301 300 300 301 303 304 306 309 314 320 325 328 328 328 327 326
298 299 299 298 298 298 298 299 298 298 298 298 297 297 297 297 297 297 297 297 297 297 296 295 296 296 297 297 298 299 300 301 301 301 300 300 300 300 300 300 300 301 301 300 300 300 300 301 302 302 302 302 302 304 305 309 315 322 326 328 328 327 327
297 298 298 298 298 298 298 298 298 298 297 297 297 297 297 296 297 297 297 297 297 297 296 295 295 296 296 297 297 298 299 300 300 300 299 299 299 299 299 299 299 300 300 300 300 299 299 301 303 305 306 306 306 305 305 306 312 319 324 327 327 327 327
297 298 298 297 297 297 297 298 297 297 297 296 296 296 296 296 296 296 297 297 297 296 295 295 295 296 296 296 297 298 299 299 299 299 299 298 298 298 298 298 299 299 299 299 299 298 298 300 303 305 307 309 311 312 311 309 311 315 320 325 327 328 327
296 297 297 297 297 296 297 297 297 296 296 296 296 296 296 296 296 296 297 297 297 296 295 295 295 296 296 296 296 297 298 298 298 299 298 298 298 298 297 297 298 298 297 297 297 296 296 298 302 305 305 306 309 313 315 315 314 315 318 321 324 326 327
296 297 297 297 296 296 296 296 296 296 296 296 295 295 295 295 296 296 296 296 296 296 295 295 295 296 296 296 296 296 297 297 298 298 298 298 297 297 297 297 297 297 296 296 296 295 295 297 300 302 304 305 307 309 313 316 317 318 319 321 322 323 325
296 296 297 297 296 296 296 296 296 296 296 295 295 295 295 295 295 296 296 296 296 296 295 295 295 296 296 296 296 296 297 297 297 297 297 297 297 297 296 296 296 296 295 295 295 295 295 296 298 301 303 305 306 308 311 314 316 318 320 321 320 320 322
295 296 296 296 296 296 296 296 296 296 295 295 295 295 295 295 295 296 296 296 296 296 295 295 295 296 296 296 296 296 296 296 296 296 296 296 296 296 296 296 296 295 294 295 295 295 296 297 298 300 303 304 306 308 310 311 313 315 317 318 318 318 319
295 296 296 296 296 296 296 296 295 295 295 295 295 295 295 295 295 296 296 295 296 296 295 294 294 295 295 295 296 296 296 296 296 296 296 296 296 296 296 295 295 294 294 294 295 295 296 297 298 299 301 302 304 305 305 306 309 311 312 314 314 314 315
295 295 295 295 296 296 295 296 295 295 295 295 295 295 296 296 295 295 295 295 295 295 295 294 294 294 295 295 295 295 296 296 296 296 296 296 296 295 295 295 294 293 293 294 295 296 296 296 297 298 299 301 302 302 302 303 305 306 308 310 311 312 313
294 295 295 295 295 295 295 295 295 295 295 295 295 295 295 295 295 295 295 294 294 294 295 294 294 294 295 295 295 295 295 295 295 295 295 295 295 295 295 295 294 294 293 294 295 296 295 295 296 297 297 298 299 300 301 302 302 303 305 306 308 309 309
294 294 294 294 294 294 295 294 294 294 295 295 295 295 295 295 295 295 295 295 294 294 294 294 294 294 294 295 295 295 295 295 295 295 295 295 295 295 295 295 294 294 294 294 295 295 296 295 295 296 296 296 297 299 300 300 301 301 302 302 304 305 305
293 293 293 293 293 293 293 293 293 294 294 295 295 295 295 295 296 295 295 295 295 294 294 294 294 294 294 294 294 294 294 294 295 295 296 295 296 295 295 295 294 294 294 294 294 295 295 295 296 295 295 295 296 298 299 299 299 300 300 301 301 302 303
293 293 292 292 292 292 292 292 292 293 294 294 294 294 295 295 295 295 295 295 295 294 294 294 294 294 294 293 293 293 293 293 294 295 295 295 295 295 295 295 294 294 294 294 294 294 294 295 296 295 295 295 296 297 298 298 298 299 299 299 300 301 301
293 293 293 292 292 293 292 292 292 292 293 294 295 295 295 295 295 295 295 295 295 295 294 294 294 294 294 293 293 293 293 293 294 295 295 295 295 295 294 294 293 293 294 294 294 294 293 294 294 295 295 295 295 296 296 297 297 297 298 298 299 299 300
293 293 293 293 293 293 293 293 293 293 293 294 295 294 295 295 295 295 295 295 295 295 294 294 294 294 293 293 293 293 293 293 293 294 294 294 294 294 293 293 293 293 293 293 293 293 293 293 293 294 294 294 294 295 295 295 295 296 296 297 297 298 298

ECMWFFLT1_925_thetae_108.txt.gz
Theta_e
333 333 332 332 331 331 331 330 330 328 327 327 327 327 327 327 328 328 329 329 329 330 330 330 330 331 331 331 331 331 331 332 332 333 332 332 333 332 332 333 333 333 333 333 333 333 333 333 332 334 334 334 335 336 335 334 334 334 332 331 331 331 332
332 331 331 331 331 331 330 329 328 327 326 325 325 325 325 325 326 326 327 327 326 327 327 328 328 329 329 330 330 330 330 331 332 332 332 332 332 332 331 332 333 333 332 333 333 333 333 332 331 332 333 333 334 336 335 333 332 332 331 331 331 331 331
331 330 330 331 330 330 329 327 326 325 324 324 323 323 324 324 324 324 324 324 324 324 324 325 325 326 326 327 328 328 329 330 330 331 332 332 332 332 333 332 332 332 332 332 333 333 333 333 332 333 333 333 333 335 335 333 330 331 331 331 331 331 330
330 330 329 329 328 328 326 325 324 323 323 323 322 321 321 322 322 322 321 321 322 322 322 322 323 323 323 324 325 326 327 328 329 329 330 331 331 332 332 332 331 332 332 333 333 332 332 332 332 332 333 333 332 332 335 334 332 331 331 331 330 331 331
327 327 327 326 325 325 323 322 322 322 321 321 320 320 319 319 320 320 319 319 319 320 319 319 320 320 321 322 323 323 324 325 326 326 327 328 329 330 330 330 331 331 331 332 332 332 332 332 332 332 332 331 331 331 332 334 335 334 333 332 331 330 330
324 324 323 323 322 322 321 320 320 320 319 319 318 318 317 318 318 318 317 317 317 317 317 317 318 318 318 319 321 321 321 322 322 323 324 325 326 327 327 328 329 330 330 331 331 331 332 332 332 332 332 331 331 332 331 332 334 334 334 334 332 331 331
321 320 320 319 319 319 318 318 318 318 318 317 317 316 316 316 317 316 315 315 315 315 315 315 315 316 316 317 318 318 319 319 320 320 321 322 323 324 324 325 327 328 329 330 330 331 331 331 332 332 331 331 331 331 331 330 331 333 334 333 332 332 331
318 318 317 316 316 317 317 316 316 316 316 316 316 315 315 315 315 315 314 314 313 313 313 313 313 313 313 314 315 316 316 316 316 317 318 319 320 321 321 322 323 324 326 327 329 330 330 331 331 331 331 331 331 330 330 329 330 333 333 332 331 331 330
316 316 315 315 315 315 315 315 314 314 314 314 314 314 313 313 313 313 313 312 311 311 311 310 310 311 311 312 313 313 313 313 313 314 316 317 318 318 318 319 320 321 323 324 326 328 329 329 330 330 331 331 331 331 330 330 331 331 332 332 331 330 329
314 314 314 313 314 313 313 313 313 313 313 313 313 312 312 312 311 311 310 309 309 309 309 309 309 309 309 310 310 310 311 310 311 312 313 314 315 315 316 317 318 319 320 321 322 324 325 326 328 329 330 330 331 331 331 332 332 331 331 333 332 330 329
312 312 312 312 312 312 312 312 312 311 311 311 311 310 310 310 309 309 308 308 308 308 308 308 308 308 309 309 309 309 309 309 310 311 311 312 312 313 314 315 316 317 318 319 320 321 322 323 326 327 328 329 330 331 330 331 332 331 331 333 332 330 329
311 311 311 311 311 311 310 310 310 310 310 310 309 309 309 308 308 308 307 308 308 308 308 307 307 308 308 308 308 309 309 309 309 310 310 311 311 312 313 313 314 315 316 317 317 319 320 321 323 325 326 327 328 330 331 331 331 331 331 333 332 330 329
310 310 310 310 310 309 309 309 309 309 309 309 308 308 307 307 307 307 307 307 307 307 307 307 307 307 307 307 308 308 308 308 309 309 310 311 311 311 312 312 313 314 314 315 316 317 318 319 320 322 323 325 326 327 328 329 330 330 330 332 331 329 329
310 309 309 309 309 308 308 308 308 308 308 308 307 307 306 306 306 306 306 306 306 306 307 306 307 307 307 306 307 307 307 308 308 309 309 310 311 311 311 312 313 313 314 314 315 315 316 318 319 319 320 321 322 323 324 326 328 330 330 331 331 330 329
309 309 309 308 308 308 308 308 308 308 307 307 306 306 306 306 306 306 306 306 306 306 306 306 306 306 306 306 306 306 306 307 308 308 309 310 310 310 311 312 312 312 312 312 313 314 315 315 316 316 317 317 318 320 321 323 325 327 329 330 330 330 330
308 308 308 308 308 307 307 307 307 307 307 306 306 305 305 305 305 305 305 305 305 305 304 305 305 305 305 305 305 306 306 306 307 308 309 309 309 310 310 311 311 311 310 310 311 311 312 312 311 312 313 314 316 317 318 320 322 324 327 327 328 330 330
308 308 308 307 307 307 307 306 306 306 306 306 306 305 305 305 305 305 304 304 304 303 303 303 303 304 304 305 305 305 306 306 307 308 308 308 308 308 309 309 309 308 308 308 309 308 308 308 308 308 309 310 312 314 315 317 319 321 324 325 327 328 330
307 307 307 307 307 306 306 306 305 305 305 305 305 305 305 305 304 304 303 303 303 302 302 301 301 302 303 304 305 305 306 306 306 307 307 307 307 307 307 307 307 306 306 307 307 306 305 305 305 305 306 307 308 310 312 313 316 318 321 324 325 327 329
307 307 306 306 306 306 305 305 305 305 305 305 305 304 304 304 303 303 302 302 302 301 301 300 300 300 301 303 304 304 305 305 306 306 306 306 306 306 306 305 305 305 305 305 304 304 303 303 303 303 303 304 305 307 309 310 312 315 318 321 324 325 327
306 306 305 305 305 305 304 304 304 304 304 304 304 303 303 303 303 302 302 301 301 300 300 299 298 298 299 301 303 304 304 304 305 305 305 305 305 305 304 304 304 304 304 303 302 302 301 301 301 301 302 302 304 305 306 307 309 311 314 318 322 324 326
305 305 305 304 304 304 304 304 303 303 303 303 303 303 303 303 302 302 302 301 300 300 299 298 296 296 297 300 302 303 303 303 303 303 304 303 303 303 303 303 303 303 302 302 301 300 300 300 300 300 300 301 302 303 303 305 307 309 312 315 319 323 325
304 304 304 304 304 304 303 303 303 303 302 302 302 302 302 302 302 302 301 301 300 300 298 297 296 296 296 298 301 302 302 302 303 302 302 302 302 302 302 302 302 301 301 300 300 299 299 298 298 299 299 300 300 301 302 304 305 307 310 313 317 321 324
303 303 303 303 303 303 303 302 302 302 302 302 302 302 302 302 302 302 301 301 301 300 297 296 296 296 297 298 300 301 302 302 302 302 301 301 301 301 301 301 301 301 300 300 300 299 298 298 298 298 298 299 299 300 301 303 304 306 308 311 315 319 323
303 302 302 302 302 302 302 302 302 302 302 302 302 302 302 302 302 302 301 301 300 299 297 296 296 297 297 298 299 301 301 301 301 301 301 301 300 300 300 300 300 300 300 299 299 298 298 298 299 299 299 300 301 302 303 303 305 306 307 309 312 317 322
302 302 302 302 302 302 301 301 301 302 302 301 302 302 302 302 302 302 301 301 300 299 297 295 296 296 297 298 299 300 301 300 300 300 300 300 300 300 299 299 299 299 299 299 298 297 297 298 299 299 300 301 303 304 305 306 306 307 307 308 310 313 318
301 301 301 301 301 301 301 301 301 301 301 301 301 302 302 302 301 301 301 301 300 298 296 295 296 296 297 298 299 300 300 300 300 300 300 300 300 299 299 299 298 298 298 298 297 296 296 297 298 300 301 302 303 304 306 307 306 305 306 307 308 309 313
301 301 301 301 301 301 301 301 301 301 301 301 301 301 302 301 301 301 301 301 300 298 295 295 296 296 297 298 299 300 300 300 300 299 299 299 299 299 298 298 298 297 297 297 296 295 294 295 298 300 301 301 302 303 305 306 305 304 305 306 306 308 310
301 301 300 301 301 301 301 301 301 301 301 301 301 301 301 301 300 301 301 301 301 298 295 295 296 296 297 298 299 300 300 299 299 299 299 299 299 298 298 297 297 297 296 296 295 294 294 295 298 299 299 300 301 302 303 304 303 302 303 305 305 306 308
301 301 300 300 301 301 301 301 301 301 301 301 301 301 300 300 300 300 300 300 300 299 296 295 296 296 296 298 299 300 300 299 299 299 299 298 299 298 298 297 296 296 296 295 295 294 295 296 297 298 298 298 299 300 300 302 302 301 302 303 304 305 306
300 300 300 301 301 300 301 301 301 300 300 301 301 300 300 300 300 299 299 299 300 299 296 295 295 296 296 297 299 300 300 299 299 299 299 299 299 298 298 297 296 295 295 295 294 294 295 296 297 297 297 297 298 298 298 300 301 301 301 302 303 304 305
300 300 300 300 300 300 300 300 300 300 300 300 300 300 300 300 300 299 299 298 299 299 297 295 295 295 295 296 299 300 299 299 299 299 299 299 299 298 298 297 296 294 294 294 294 294 294 295 296 296 296 296 297 296 297 298 299 300 300 301 302 303 304
300 300 300 300 300 300 300 300 300 300 300 300 300 300 300 300 300 299 299 298 297 298 298 295 294 295 295 296 297 299 299 298 299 299 298 299 299 298 298 298 296 294 294 294 294 294 294 294 295 296 296 296 295 295 295 297 298 298 299 300 300 301 302
299 299 299 299 299 299 299 299 300 300 299 299 300 300 300 300 300 299 299 299 297 297 297 296 294 294 294 295 296 297 298 298 298 299 298 298 298 298 298 298 296 294 294 294 294 294 294 294 294 295 295 295 294 294 295 296 296 296 297 298 299 300 300
298 298 298 298 298 299 299 299 299 299 299 300 300 300 300 300 299 299 299 299 298 297 296 295 294 293 293 294 295 296 297 297 298 298 298 298 298 298 297 297 296 294 294 294 294 294 294 294 294 294 294 294 294 294 295 295 295 295 296 297 298 299 299
298 298 297 298 298 298 298 299 299 299 299 300 300 300 300 300 300 299 299 299 299 298 296 295 294 294 293 293 294 294 295 296 297 298 298 298 298 297 297 297 296 294 294 295 295 294 294 294 295 295 294 294 294 295 295 295 294 295 296 296 297 298 298
298 298 298 298 298 298 298 299 299 299 299 299 300 300 300 300 300 300 299 299 299 299 298 296 295 294 294 293 293 293 294 295 296 297 298 298 297 297 296 296 295 294 294 295 295 295 295 294 295 295 295 295 295 295 295 295 294 294 294 295 295 297 298
298 298 298 298 298 298 298 298 299 299 299 299 299 299 299 299 299 299 299 299 298 298 298 297 296 295 295 295 294 294 294 294 295 296 297 297 297 296 295 295 295 294 294 295 296 296 295 295 295 296 296 296 295 295 295 296 295 294 294 294 294 296 297

ECMWFFLT1_925_thetae_111.txt.gz
Theta_e
336 335 334 334 334 333 333 332 331 329 328 327 327 328 327 327 327 328 328 328 328 329 328 329 330 330 330 330 331 332 332 333 333 333 333 333 334 334 334 334 333 333 334 334 334 334 334 334 334 333 334 334 335 336 335 334 335 335 335 334 333 333 334
334 334 333 333 333 333 332 330 329 328 327 326 326 326 325 326 326 325 325 325 325 326 326 326 327 327 327 327 328 329 329 330 331 332 333 333 333 333 334 334 334 334 334 334 334 333 334 335 335 334 333 334 336 336 335 334 335 335 336 336 335 335 336
333 333 333 333 332 331 330 328 327 326 326 325 325 324 323 323 324 323 323 323 323 323 323 323 324 324 324 325 325 326 327 327 328 329 329 330 331 331 332 333 334 333 334 334 333 333 333 335 334 333 332 333 334 334 334 334 335 335 335 336 337 337 336
333 332 332 331 330 329 327 327 326 325 324 324 323 322 321 321 322 321 320 321 321 321 321 321 321 321 322 322 323 324 325 325 325 326 326 326 327 328 329 330 331 331 332 333 333 333 333 334 333 332 332 332 332 332 333 333 334 335 336 336 337 337 335
330 330 330 328 327 326 325 324 324 324 323 322 321 320 320 320 320 320 319 319 319 319 319 319 319 319 320 320 321 322 322 322 323 323 323 323 324 325 325 326 327 328 329 330 331 332 333 334 333 332 332 331 332 331 332 332 331 333 335 335 335 336 335
327 327 326 325 324 324 323 322 322 322 321 320 320 319 318 318 319 318 318 318 318 317 317 317 317 318 318 318 320 320 320 320 320 320 321 321 322 323 323 323 324 324 325 326 327 329 330 332 332 332 332 331 331 331 331 331 329 330 332 332 334 335 335
324 323 323 322 322 322 321 321 321 320 320 319 318 317 317 317 317 317 316 316 316 316 316 315 316 316 316 317 318 318 318 317 317 317 318 320 320 320 321 321 321 322 322 323 324 326 327 329 330 331 332 332 332 331 331 331 329 329 330 330 332 333 333
321 320 320 320 320 320 319 319 319 319 318 318 317 316 316 316 316 316 315 315 314 314 314 314 314 315 314 315 316 315 315 315 314 315 316 317 317 318 318 319 319 320 321 322 322 323 324 325 326 327 328 330 331 331 330 330 330 330 330 329 330 331 333
319 319 318 318 318 318 318 318 317 317 317 316 316 315 315 315 314 314 314 314 314 314 314 313 314 314 314 314 314 314 313 313 313 314 315 315 315 316 316 317 317 318 319 320 320 321 321 322 323 324 325 327 329 329 329 329 330 330 330 329 329 330 333
318 317 317 317 317 317 317 316 316 316 315 315 314 314 314 313 313 313 313 313 313 313 313 313 313 313 313 313 313 313 312 312 312 313 313 314 314 314 315 315 316 316 317 317 318 318 319 319 321 322 323 324 326 327 328 329 329 329 330 330 329 329 331
316 316 316 316 316 316 315 315 315 314 314 314 314 314 313 313 312 313 313 312 312 312 312 312 312 312 313 312 312 312 311 311 312 312 313 313 313 313 314 314 315 315 316 316 316 317 317 318 319 320 321 322 323 324 326 327 327 327 329 330 330 330 330
315 315 315 315 315 315 314 314 314 314 314 314 313 313 312 312 312 312 312 312 312 312 312 311 312 312 311 311 311 311 310 310 311 311 312 312 312 312 313 313 314 314 315 314 314 315 316 317 317 317 318 319 320 321 322 324 324 324 326 328 329 330 330
314 314 314 314 314 314 313 313 313 313 313 312 312 312 311 311 311 311 311 310 310 310 310 310 311 311 310 310 310 309 309 310 310 311 311 311 312 312 312 312 313 313 313 313 313 313 313 314 314 314 314 315 316 317 318 321 322 321 322 324 325 327 328
314 313 313 313 313 313 313 313 313 312 312 311 311 311 310 310 310 310 309 309 309 308 309 309 309 310 310 309 309 309 309 309 309 310 310 311 311 311 311 311 311 311 311 311 311 311 311 311 310 310 310 311 312 313 315 316 318 318 319 321 322 323 325
313 312 313 312 313 313 313 313 312 311 311 310 310 310 310 310 309 308 308 307 307 307 307 307 308 309 309 309 309 309 308 308 309 309 310 310 310 310 310 310 310 309 309 309 309 308 308 307 307 307 307 308 309 310 311 312 314 315 317 318 319 321 322
312 312 312 312 312 312 312 312 311 311 310 310 310 309 309 308 308 307 307 306 305 305 305 305 306 307 308 308 309 308 308 308 308 309 309 309 309 309 309 309 308 308 307 307 307 306 306 305 305 305 305 306 306 307 308 309 310 312 314 315 316 318 320
311 312 312 312 311 311 311 311 310 310 310 309 309 308 308 307 306 306 305 305 304 304 304 304 304 305 306 307 308 308 308 308 308 308 308 308 308 308 307 307 307 306 306 305 305 304 304 303 303 303 304 304 305 305 306 307 308 309 311 312 314 315 318
311 311 311 311 310 310 310 310 310 309 309 309 308 308 307 306 305 305 304 304 303 303 303 302 303 304 305 306 307 307 307 307 307 307 307 307 307 306 306 306 306 305 304 304 303 303 302 302 302 302 302 303 303 304 305 305 306 307 308 310 312 313 315
310 310 310 310 310 309 309 309 309 308 308 307 307 307 306 305 305 304 303 303 303 302 301 301 301 302 303 305 307 306 306 306 306 306 305 305 305 305 305 304 304 304 303 303 302 302 301 301 301 301 301 302 302 303 303 304 304 306 307 308 309 311 314
310 309 309 309 308 308 308 308 308 307 307 307 306 306 305 305 304 304 303 302 302 301 300 299 299 300 302 304 306 306 306 305 305 305 305 304 304 304 303 303 303 303 302 302 301 301 301 300 300 300 300 301 301 301 302 303 304 305 306 307 308 310 312
309 308 308 308 307 307 307 306 307 306 306 306 306 305 305 305 304 303 303 302 301 300 299 299 298 299 300 302 304 305 305 305 304 304 304 303 303 303 303 302 302 302 302 301 301 300 300 299 299 299 299 300 300 301 302 303 304 305 306 307 308 309 310
308 307 307 307 307 306 306 306 306 305 305 305 305 305 305 304 304 303 303 302 301 300 298 298 298 298 299 300 303 305 304 304 304 303 303 303 303 302 302 302 302 301 301 300 300 299 299 298 297 298 299 299 300 301 302 303 304 305 306 307 308 309 309
307 307 306 306 306 305 305 305 305 305 305 305 305 305 305 304 304 303 302 302 301 300 297 297 298 299 299 300 302 304 304 303 303 302 302 302 302 302 301 301 301 301 300 300 299 299 298 297 297 297 298 299 300 301 302 303 304 305 306 307 307 307 308
306 306 306 305 305 305 305 305 305 305 305 305 305 305 305 305 304 303 302 301 301 299 297 297 298 299 300 300 301 303 303 303 302 302 302 302 301 301 301 300 300 300 300 300 299 298 297 297 297 298 299 300 301 301 302 302 303 304 305 305 304 305 306
305 305 305 305 304 304 304 305 304 305 305 305 305 305 305 305 304 304 302 301 300 299 297 297 298 299 300 300 301 302 303 302 302 301 301 301 301 300 300 299 300 300 299 299 298 297 296 296 296 298 300 301 301 301 301 301 302 302 302 303 303 304 304
305 305 304 304 304 304 304 304 304 304 304 304 304 304 305 305 304 304 303 301 300 298 296 296 298 299 300 300 301 302 302 302 301 301 301 301 300 300 299 299 299 299 299 299 297 295 295 295 296 298 300 301 301 301 301 301 300 300 300 301 302 302 303
304 304 304 304 304 304 304 304 304 304 304 304 304 304 304 304 304 304 303 301 300 297 295 296 298 299 300 301 301 302 302 302 301 301 301 300 300 300 299 299 299 299 298 298 296 294 294 295 297 299 300 300 301 301 301 301 300 299 299 299 300 301 301
304 304 304 304 304 304 304 304 303 303 303 303 303 303 303 304 304 304 303 302 300 298 295 295 297 299 300 301 301 302 302 301 301 301 301 300 300 300 299 299 298 298 298 297 295 294 294 295 297 299 299 299 300 300 300 300 299 298 298 298 298 300 300
304 303 303 304 304 304 304 303 303 303 303 303 303 303 303 303 303 303 303 302 300 298 295 295 296 298 300 301 302 302 302 301 301 301 301 300 300 300 299 298 298 298 297 296 295 295 295 296 298 298 298 298 299 299 299 298 298 297 297 297 298 299 300
303 303 303 303 303 304 303 303 303 303 303 303 303 303 302 302 301 302 302 302 301 299 296 294 295 297 299 300 301 302 302 302 301 301 301 301 300 300 299 298 297 297 297 296 295 295 295 297 298 298 298 298 298 297 298 297 297 297 297 297 298 298 299
303 303 303 303 303 303 303 303 303 303 303 303 303 303 303 302 301 300 300 300 301 300 296 294 294 296 297 299 301 302 302 302 301 301 301 301 300 300 300 298 297 296 296 296 295 295 295 296 298 298 298 298 298 297 297 297 297 297 297 297 298 298 299
302 302 303 303 303 303 303 303 303 303 303 303 302 302 303 302 302 301 300 299 299 300 298 295 294 295 296 297 300 301 301 301 302 301 300 300 300 300 299 299 297 295 296 296 296 296 295 296 297 298 297 297 297 297 297 297 297 296 296 296 297 297 298
302 302 302 302 302 302 303 303 303 303 302 302 302 302 302 302 302 302 301 299 298 298 298 297 294 294 295 295 297 299 300 300 301 301 301 300 299 299 299 299 297 296 295 296 296 296 296 296 297 297 297 296 296 296 297 298 297 296 296 295 296 297 297
302 302 302 302 302 302 302 302 302 303 303 303 303 303 302 302 302 302 302 301 299 298 298 297 296 295 294 294 295 296 298 299 299 301 301 300 299 299 298 298 297 295 295 296 296 297 296 296 296 297 297 297 297 297 298 298 298 297 296 296 296 297 297
301 301 301 302 302 302 302 302 302 302 303 303 303 303 303 303 302 302 302 302 301 300 299 298 297 296 295 295 294 295 296 296 297 299 300 300 299 298 298 297 297 295 295 296 296 297 297 296 296 297 297 297 298 298 298 298 298 298 297 296 297 297 297
301 301 301 301 302 302 302 302 302 302 303 303 303 303 303 303 302 302 302 301 301 301 300 299 298 296 296 296 296 295 295 295 296 298 300 300 299 298 297 297 296 295 295 296 296 297 297 297 296 296 297 297 298 299 300 299 298 298 298 298 297 297 297
300 300 300 301 301 302 302 302 302 302 302 302 302 302 302 302 302 302 301 301 300 300 300 300 298 297 296 297 297 296 296 296 296 296 298 299 299 298 297 296 296 295 295 296 296 297 297 297 296 296 296 297 298 299 300 300 299 298 298 298 298 298 298

ECMWFFLT1_925_thetae_114.txt.gz
Theta_e
332 333 335 334 334 333 331 330 328 327 327 327 326 325 325 326 325 325 325 325 325 325 325 325 325 325 325 325 325 326 327 327 328 328 329 329 329 330 330 330 331 332 332 333 334 334 334 335 334 333 334 334 334 334 334 335 334 334 334 334 335 334 334
333 334 334 334 332 331 330 328 328 327 326 325 324 323 324 324 323 323 323 323 323 323 322 322 322 323 323 323 323 324 325 325 325 325 326 326 326 327 327 327 328 328 329 330 331 332 332 333 334 333 333 333 333 333 334 334 335 334 334 333 334 334 335
334 334 333 333 331 329 329 328 327 326 325 324 322 321 322 322 321 321 321 321 320 320 320 320 320 321 321 321 321 323 323 323 323 323 323 323 323 324 324 324 325 326 326 326 327 328 328 331 332 331 331 332 332 332 332 333 335 336 335 334 334 334 335
333 333 332 331 329 328 327 326 325 324 322 321 321 320 320 320 320 319 320 320 319 319 319 319 319 319 319 320 321 321 321 321 320 320 320 321 321 322 322 322 323 323 324 324 324 325 326 327 328 329 329 330 330 330 331 331 332 334 334 334 334 334 334
331 330 329 328 326 326 325 324 324 323 322 320 320 319 319 319 319 318 318 318 318 318 317 317 317 317 317 319 319 318 318 318 317 317 318 319 319 319 320 320 320 321 321 322 322 323 324 324 325 326 326 327 327 327 328 329 330 331 331 331 333 334 335
327 327 326 325 325 324 323 323 323 322 321 320 319 318 318 318 317 317 317 316 316 316 316 316 316 316 316 317 317 316 316 316 315 315 316 316 317 316 317 317 318 318 319 320 320 321 321 321 322 323 323 324 325 325 325 326 328 329 329 329 330 332 334
325 324 324 323 323 322 322 322 321 320 320 318 318 317 317 317 317 316 316 316 316 315 315 315 316 315 316 316 315 315 315 314 314 315 315 315 315 315 315 316 316 317 318 318 318 318 319 319 320 320 321 322 323 323 324 325 326 326 327 328 328 329 331
323 322 322 321 321 320 320 320 319 319 318 317 317 316 316 316 316 315 315 315 315 314 314 314 314 315 315 314 314 314 313 313 313 314 314 314 314 314 314 314 315 316 316 317 317 317 317 318 318 319 320 321 321 322 322 323 323 323 324 325 326 328 329
321 320 320 319 319 319 318 318 318 317 316 316 316 315 315 315 315 315 314 314 314 314 314 314 314 314 314 313 313 313 311 312 313 313 313 313 313 313 313 313 314 315 315 315 315 315 315 316 317 317 317 318 319 320 320 320 321 321 322 323 323 325 326
319 319 318 318 318 318 317 317 316 316 316 315 315 315 314 314 314 314 313 313 313 313 313 313 313 313 312 312 312 311 311 311 312 312 312 313 313 313 313 313 313 314 313 313 313 313 313 313 313 313 313 314 315 316 317 317 317 318 319 320 321 322 323
318 318 318 318 317 317 316 316 316 315 315 315 314 314 313 313 313 313 312 312 312 312 312 312 312 311 311 311 311 310 310 310 311 311 311 312 312 312 312 311 312 312 310 310 311 310 311 310 310 309 309 310 311 312 313 314 315 316 317 317 318 318 319
317 317 317 317 316 316 316 315 315 315 314 314 313 313 312 312 311 311 310 310 310 310 310 311 311 311 311 311 310 310 309 310 310 310 310 311 311 310 310 310 310 309 309 309 308 308 308 308 307 307 307 307 308 309 310 311 311 312 312 313 314 314 315
316 316 316 315 315 315 315 315 314 314 313 312 312 312 311 310 309 309 308 308 307 308 308 309 310 310 310 310 310 309 310 309 309 310 310 309 309 309 309 309 308 308 307 307 306 306 306 305 305 305 305 305 306 306 307 308 308 308 309 310 311 311 312
315 315 315 315 314 315 314 314 313 313 312 312 311 311 310 309 308 307 306 306 306 306 306 307 308 309 309 309 309 309 309 309 309 309 309 308 308 308 308 307 307 306 305 305 305 304 304 303 303 303 303 304 304 304 305 306 306 307 307 308 308 309 309
314 314 314 314 314 314 313 312 312 312 311 311 310 309 308 308 307 306 305 305 304 304 305 306 307 308 309 309 309 308 308 308 308 307 307 307 307 306 306 306 305 305 304 304 303 303 302 302 302 302 302 303 303 303 304 304 305 305 306 306 306 307 308
314 314 314 314 314 313 313 312 311 311 310 309 308 307 307 306 305 305 304 304 303 303 303 304 306 307 308 308 308 307 307 307 307 306 306 306 306 305 305 304 304 304 303 303 302 302 302 301 301 301 301 301 302 302 302 303 303 304 304 305 305 306 307
313 313 313 313 313 313 312 312 311 310 310 309 307 306 305 305 304 304 303 303 303 302 302 303 304 306 307 307 307 306 306 306 306 305 305 305 305 304 304 303 303 303 302 302 302 301 301 301 300 300 300 300 301 301 301 302 302 303 303 304 305 305 306
313 312 312 312 312 311 311 310 310 309 309 308 307 306 305 304 303 303 302 302 302 302 301 302 303 304 306 306 306 306 306 305 305 304 304 304 304 304 303 303 303 302 302 302 301 301 300 300 300 299 299 299 300 300 301 301 302 302 303 304 304 305 306
312 312 311 311 310 310 310 309 309 308 307 307 306 305 305 304 303 302 302 301 301 301 300 300 302 303 304 305 306 305 305 304 304 304 304 303 303 303 302 302 302 302 301 301 300 300 300 299 299 298 298 299 299 300 300 301 302 303 303 304 304 305 306
311 311 310 310 310 310 309 308 308 308 307 306 306 305 304 304 303 302 301 300 299 299 300 300 301 303 304 305 306 305 304 303 303 303 303 303 302 302 301 301 301 301 301 300 300 299 299 298 297 297 297 298 299 299 300 301 302 302 303 304 304 305 306
310 309 309 309 309 308 308 308 307 307 307 306 305 305 304 304 303 302 301 299 298 299 300 300 301 302 303 304 305 305 304 303 303 303 302 302 301 301 301 301 301 301 300 300 299 299 298 297 296 296 297 298 299 299 300 301 302 302 302 303 303 304 304
309 308 308 308 307 307 307 307 307 306 306 306 305 305 304 303 302 302 301 300 298 299 300 300 300 301 302 303 304 305 304 303 302 302 302 301 301 301 300 300 301 301 300 299 298 298 297 296 296 297 298 299 299 299 300 301 302 302 301 301 301 302 302
308 308 307 307 307 306 306 306 306 306 306 306 306 305 303 302 301 301 301 299 298 299 300 300 300 301 301 302 303 304 303 302 302 302 301 301 301 300 300 300 300 300 299 299 298 297 297 297 297 298 299 299 300 300 300 301 301 301 300 300 300 300 301
307 307 306 306 306 306 306 306 306 306 306 306 306 305 304 303 301 300 299 298 297 298 300 300 301 301 302 302 303 303 303 302 302 301 301 301 300 300 299 300 300 299 299 298 297 298 298 298 298 299 299 299 299 299 299 300 300 299 299 299 298 299 299
307 306 306 306 306 306 306 306 306 306 306 306 306 306 305 303 302 300 299 297 296 297 299 300 300 301 301 302 302 303 302 302 302 301 301 301 300 299 299 299 299 299 299 298 297 297 298 299 299 299 299 299 299 299 299 298 298 298 298 298 298 298 298
306 306 305 305 305 305 305 305 305 305 305 305 306 305 305 303 302 301 299 296 296 296 298 300 301 301 301 302 302 302 302 302 302 301 301 301 300 299 298 299 299 298 298 297 296 296 298 299 299 299 299 299 299 299 298 298 297 297 297 297 297 297 297
306 305 305 305 305 305 305 305 305 305 304 305 305 305 305 303 302 301 299 297 295 296 297 299 300 301 301 302 302 302 302 302 302 301 301 301 300 299 298 298 298 298 298 297 296 296 297 299 299 299 299 299 299 299 298 298 298 298 297 297 297 296 297
305 305 305 305 305 305 305 305 304 304 304 304 304 305 305 304 303 301 299 297 295 295 296 298 300 301 301 302 303 303 302 302 302 301 301 301 300 299 298 297 297 297 297 297 296 296 296 298 299 299 299 298 299 299 298 298 298 298 298 297 297 297 297
305 305 305 305 305 305 304 304 304 303 303 303 303 304 304 304 303 302 300 298 295 295 296 297 299 300 301 302 303 303 302 302 301 301 301 301 301 299 298 297 296 296 296 296 296 296 296 296 298 298 298 298 298 299 299 299 298 298 298 298 297 297 297
305 305 304 304 304 304 304 304 303 303 303 303 303 302 302 302 302 302 301 299 296 295 295 296 297 299 300 301 302 302 302 302 302 301 301 301 301 300 299 298 296 295 295 296 296 297 297 296 296 298 298 298 298 298 299 299 299 299 298 298 298 298 298
304 304 304 304 304 304 304 304 304 304 304 303 303 302 301 301 300 300 301 300 298 296 295 295 295 296 298 300 301 301 302 302 302 301 300 300 300 299 299 298 297 295 295 296 296 296 297 297 296 297 297 298 298 298 298 299 299 299 298 298 298 298 298
303 304 304 304 303 303 304 304 304 304 303 304 303 302 302 300 300 299 299 299 299 297 296 295 295 295 295 297 298 300 300 300 301 301 300 299 299 299 298 298 297 295 295 296 296 296 297 297 296 297 297 297 298 297 297 298 299 299 298 298 298 298 298
303 303 303 303 303 303 303 303 303 303 303 303 303 303 303 302 301 300 299 299 299 298 297 295 296 296 295 295 296 297 298 298 299 300 301 300 299 298 298 297 297 296 296 296 296 296 297 297 296 297 297 297 297 297 298 299 299 299 298 298 298 298 299
303 303 303 303 303 303 303 304 303 303 303 303 303 303 303 303 303 302 301 300 300 299 298 296 296 296 296 296 295 296 296 297 298 299 300 300 299 298 297 297 297 296 296 296 296 297 297 297 296 297 296 297 297 297 298 300 300 298 298 298 298 298 299
303 303 303 303 303 303 303 304 304 304 304 304 303 303 303 303 303 303 302 302 301 300 299 298 297 296 297 297 296 296 296 296 297 298 299 299 299 299 298 298 297 297 297 296 297 297 297 297 297 297 296 297 297 297 298 299 299 298 298 298 298 298 298
303 303 303 303 303 303 303 304 304 304 304 304 304 304 303 303 303 302 302 302 302 301 300 299 298 296 296 297 297 296 296 296 296 297 298 299 299 298 298 298 297 297 297 296 296 297 297 297 297 296 296 297 297 297 297 298 298 298 298 298 298 298 298
302 303 303 303 303 303 303 303 303 304 304 303 303 304 303 303 303 302 301 301 300 300 300 300 298 296 296 297 297 296 296 296 297 297 298 298 298 298 298 298 297 297 297 296 296 297 297 296 296 296 296 296 296 296 297 297 297 297 297 297 298 298 298

ECMWFFLT1_925_thetae_117.txt.gz
Theta_e
334 335 334 332 331 330 328 327 326 326 326 325 325 324 323 323 322 322 322 322 322 322 321 321 320 320 320 321 322 321 321 321 321 320 320 320 321 321 320 321 321 321 322 323 324 324 326 326 325 325 325 324 324 326 327 326 327 328 329 331 334 334 334
334 334 332 330 329 328 327 326 326 325 324 323 322 322 321 321 320 320 320 320 320 319 319 319 319 319 319 319 319 319 319 319 318 318 318 317 317 318 318 319 319 319 320 321 321 321 323 324 324 324 323 323 323 323 323 322 322 321 322 326 331 333 335
334 332 331 329 328 327 327 326 325 324 322 321 320 319 319 319 319 319 318 318 318 318 317 317 317 318 318 317 317 317 316 316 316 316 316 315 315 315 316 316 317 318 319 320 319 320 321 321 322 321 321 321 321 321 320 321 321 320 322 325 327 330 332
333 331 329 328 327 326 325 324 323 321 320 319 318 318 318 318 318 318 317 316 315 316 316 316 316 317 316 315 315 314 314 315 315 314 315 314 314 314 314 315 315 316 318 319 318 318 318 319 319 318 319 319 319 319 319 320 320 321 323 324 324 326 327
331 329 328 326 326 325 324 323 322 320 319 318 318 317 317 317 316 316 315 315 314 315 315 315 315 315 315 314 314 313 314 314 314 314 314 313 313 313 313 314 315 316 317 317 316 316 316 317 317 317 317 317 317 318 318 318 319 319 321 321 322 321 321
328 327 326 325 324 324 324 322 320 318 318 317 317 317 316 316 315 314 314 314 314 314 314 314 314 314 313 313 312 312 313 313 313 314 314 313 312 313 313 313 314 314 315 315 314 313 313 314 315 315 315 315 315 315 315 315 316 316 317 318 318 318 319
326 325 324 323 323 322 322 320 319 318 317 316 316 316 316 315 314 314 314 313 313 314 313 314 313 313 312 311 311 311 312 312 312 312 313 313 312 312 312 313 312 311 311 311 311 311 311 311 311 311 311 311 312 312 312 312 313 313 314 315 314 316 318
324 323 322 322 322 321 320 319 318 317 316 315 315 315 315 314 314 313 313 313 313 313 313 312 312 312 311 310 310 311 311 311 311 311 312 311 311 310 310 310 309 308 308 308 308 308 309 308 308 307 307 308 308 309 309 309 310 311 311 311 312 313 313
323 322 321 320 320 320 319 318 317 316 315 315 314 313 314 314 313 312 312 312 312 312 311 311 310 310 309 309 310 310 310 310 310 310 310 309 309 309 309 308 307 306 306 306 306 306 306 305 304 304 305 306 306 307 307 307 307 308 308 309 310 309 308
322 321 320 319 319 318 318 317 316 315 314 314 313 313 312 312 312 311 311 311 311 311 310 310 310 309 309 309 309 309 310 310 309 309 309 308 308 308 307 306 305 304 304 305 304 304 304 303 303 303 303 304 304 305 305 305 305 306 306 307 307 306 306
319 319 319 318 317 316 316 315 315 315 314 313 313 312 311 310 309 309 308 309 310 310 310 310 310 309 309 309 309 309 309 308 308 308 307 306 306 306 305 305 304 303 303 303 303 302 302 302 302 302 302 302 303 303 304 304 304 305 305 305 305 305 305
318 317 317 317 316 315 315 315 314 314 313 312 311 310 309 308 307 307 307 307 308 309 310 309 309 309 308 308 308 307 307 307 306 306 305 305 305 305 304 303 303 302 302 302 301 301 301 301 301 301 301 301 302 302 303 303 303 303 304 304 304 304 303
318 317 316 316 315 315 314 314 313 312 311 310 309 308 307 306 305 305 305 306 307 308 309 309 308 308 308 307 307 306 306 305 305 304 304 304 303 303 303 303 302 302 302 301 301 301 300 300 300 300 300 300 300 301 301 301 302 302 302 302 302 302 303
316 316 315 315 315 314 313 312 312 311 310 309 308 306 305 304 304 304 303 304 306 308 308 308 308 307 307 306 306 305 305 305 304 304 303 303 303 303 302 302 301 301 301 301 300 300 300 300 299 299 299 299 299 300 300 301 301 301 301 301 302 302 303
315 315 315 314 313 313 312 311 310 309 308 307 306 305 304 304 303 302 301 302 305 307 307 307 307 306 306 305 305 304 304 304 303 303 302 302 302 302 301 301 301 300 300 300 299 299 299 299 299 298 299 299 299 299 300 300 301 301 301 301 302 302 303
314 314 314 313 312 312 311 310 308 307 306 306 305 304 303 303 301 300 298 301 305 307 306 306 306 306 305 305 304 304 303 303 302 302 302 301 301 301 301 301 300 300 300 299 299 299 298 298 297 298 298 298 299 299 300 300 300 301 301 302 302 302 303
314 314 313 312 311 311 310 309 307 306 305 304 303 302 301 299 298 298 298 300 304 306 306 306 306 305 304 304 303 303 303 302 302 301 301 300 300 301 301 301 300 299 299 299 298 298 297 297 297 298 298 298 298 299 299 300 300 301 301 302 302 302 302
313 313 312 312 311 310 309 308 307 306 305 304 303 302 299 297 296 298 299 300 303 305 305 305 305 305 304 303 303 303 302 302 301 300 300 300 300 301 301 300 299 299 298 298 297 297 297 297 298 298 298 298 298 299 299 299 300 300 301 302 302 302 301
312 312 311 311 310 309 309 308 307 305 304 304 303 302 300 297 297 299 300 300 302 303 304 305 305 304 303 303 302 302 302 301 300 300 300 300 300 300 300 299 299 299 298 297 297 298 298 298 298 298 298 298 299 299 299 299 299 300 301 301 301 300 300
311 310 310 309 308 308 307 306 305 305 304 303 303 302 300 298 297 299 300 301 301 302 303 304 304 304 303 302 302 302 301 300 300 300 299 299 299 299 299 299 299 299 297 297 297 298 298 298 298 298 299 299 299 299 299 299 299 299 299 299 299 299 299
310 310 309 308 308 307 307 306 305 304 304 303 302 302 300 298 298 299 300 300 301 302 302 303 304 303 303 302 302 301 301 300 300 299 298 298 299 299 299 299 299 298 297 297 298 298 298 298 299 299 299 299 299 299 299 298 298 298 298 298 298 298 298
310 309 308 308 307 307 306 306 305 304 303 303 302 300 299 297 298 299 300 300 301 301 302 302 303 303 303 302 301 301 301 300 300 299 298 298 299 299 298 298 298 297 297 297 297 298 298 298 299 299 299 299 299 299 298 298 298 298 298 298 298 298 298
308 308 307 307 307 306 306 306 305 304 303 302 301 298 296 297 298 299 300 300 300 301 301 301 302 303 302 302 301 301 301 301 300 299 298 298 298 299 298 297 297 297 296 296 296 297 298 298 298 298 299 299 299 299 298 298 298 298 298 298 298 298 298
307 307 306 306 306 306 306 306 305 304 303 302 301 298 296 296 297 298 299 300 300 300 300 301 301 302 302 302 301 301 301 301 300 300 299 298 298 298 297 297 297 297 296 296 296 296 297 297 297 298 298 298 298 299 299 298 298 298 298 298 298 298 298
306 306 306 306 306 306 306 305 305 305 304 303 302 299 297 296 296 297 299 300 300 300 301 301 301 302 302 302 302 301 301 301 301 300 299 299 298 297 297 296 296 296 296 296 296 296 296 296 296 297 297 298 298 298 298 299 299 298 298 298 298 298 298
306 306 306 306 306 306 306 305 305 305 304 303 302 300 298 296 296 296 298 299 300 300 300 301 301 302 302 302 302 302 301 301 301 300 300 299 298 297 296 296 296 296 296 296 296 296 296 296 296 296 297 297 297 298 298 298 299 299 298 298 298 298 298
306 306 306 306 306 305 305 305 305 305 304 303 302 300 298 296 295 295 296 298 299 300 300 301 301 302 302 302 302 302 301 301 301 300 300 299 298 297 296 295 295 296 296 296 296 296 296 296 296 296 296 296 297 297 297 298 298 299 298 298 298 298 298
305 305 305 305 305 304 304 304 305 305 304 303 302 301 299 298 296 295 295 297 298 299 299 300 301 302 302 302 302 301 301 301 301 300 300 299 299 298 297 296 295 296 296 296 296 296 296 296 296 296 296 296 297 297 297 298 298 298 298 298 298 298 298
305 305 304 304 304 304 304 304 304 304 304 304 303 302 301 300 297 295 295 296 296 297 298 300 301 301 302 302 302 301 301 301 301 301 299 299 299 298 297 296 296 296 296 296 296 296 296 296 296 296 296 296 297 296 297 298 298 297 298 298 298 298 298
305 304 304 304 304 303 303 303 303 303 304 304 303 302 302 301 298 296 295 295 295 296 296 298 300 301 301 302 302 301 300 300 300 300 299 298 297 297 296 296 296 296 296 296 297 297 296 296 296 296 296 296 296 296 297 297 297 297 297 297 297 297 298
304 304 304 304 303 303 303 303 303 302 302 302 302 302 301 300 298 296 295 295 295 295 295 296 297 298 300 301 301 301 300 300 300 300 298 298 297 297 297 297 297 297 296 296 297 297 296 296 296 295 296 296 296 296 296 297 297 296 296 297 297 297 298
304 304 304 303 303 303 303 303 302 301 299 298 298 298 298 297 297 297 296 295 295 295 295 295 295 296 297 299 300 300 300 300 300 299 299 299 298 297 297 297 297 297 296 296 296 296 296 296 295 295 295 295 295 295 296 296 296 296 296 296 296 297 297
304 304 304 304 303 303 303 303 303 302 300 299 299 299 298 298 299 299 299 298 296 295 295 295 295 295 296 296 297 298 299 299 299 299 299 298 298 297 297 297 297 297 296 296 296 296 295 296 295 294 295 295 295 295 296 296 296 296 295 295 296 296 297
304 304 304 303 303 303 303 303 303 303 302 302 302 301 301 301 301 300 300 300 299 297 296 295 296 296 296 295 296 296 297 298 298 298 298 297 297 297 297 297 297 296 296 295 296 296 295 295 295 294 294 294 294 295 295 295 295 295 295 295 295 296 296
303 303 303 303 303 303 303 303 303 303 303 302 302 302 302 302 302 301 300 300 299 299 297 296 296 296 296 296 295 296 296 297 297 297 297 297 297 297 297 297 297 296 295 295 296 295 294 294 295 293 293 293 294 294 295 294 295 295 294 294 295 295 296
303 303 303 303 303 303 303 303 303 302 302 302 302 302 302 302 302 301 301 300 299 298 298 297 296 296 296 296 295 295 296 296 296 296 296 296 296 297 297 296 296 296 295 294 295 295 293 293 294 293 292 293 293 293 294 294 294 294 294 294 294 294 295
303 303 303 303 303 304 304 303 302 302 303 303 303 303 303 303 303 302 301 300 299 298 298 297 296 295 296 296 295 295 296 296 296 296 296 296 296 297 297 296 296 296 295 294 294 295 294 293 293 293 292 292 292 293 293 293 293 293 294 293 293 294 294

ECMWFFLT1_925_thetae_123.txt.gz
Theta_e
331 328 328 328 327 327 326 325 325 324 324 324 324 323 323 322 322 322 321 321 320 319 318 317 316 315 314 313 312 312 312 313 313 313 313 314 314 314 314 315 315 313 312 311 310 312 315 315 314 312 311 309 308 308 307 306 303 303 307 308 305 305 307
330 328 327 327 326 326 325 324 323 322 322 321 321 321 320 320 319 319 319 319 318 317 316 315 314 314 313 312 312 312 312 313 313 313 313 312 311 311 311 311 311 311 310 309 308 308 311 312 312 310 308 306 305 305 304 303 301 302 305 306 303 302 304
328 327 326 325 324 324 323 322 321 320 319 319 319 318 318 317 317 317 317 317 316 315 314 313 313 313 313 312 312 312 312 312 312 311 311 310 309 308 308 308 308 308 308 308 306 305 306 308 307 306 305 304 303 303 303 301 301 302 304 305 302 301 303
328 327 325 323 322 323 322 320 320 319 318 317 317 316 316 315 315 316 315 315 314 313 313 313 313 313 313 313 312 311 311 311 310 310 309 308 307 306 306 305 305 305 305 305 304 303 303 304 303 303 302 302 302 302 302 301 301 302 303 303 301 301 302
330 327 325 323 322 322 321 319 318 317 316 316 315 315 314 314 314 314 314 314 313 312 312 312 312 312 312 312 311 310 309 309 308 308 307 305 305 304 303 303 303 303 302 302 302 301 301 301 301 301 301 301 302 301 301 301 301 302 303 302 300 301 301
329 327 325 324 323 322 321 319 317 316 315 314 314 314 314 314 314 313 313 312 311 311 311 311 311 311 311 310 309 308 308 307 307 306 304 303 302 301 301 301 301 301 301 300 300 300 300 300 300 300 301 301 301 301 301 301 301 301 301 301 300 300 300
327 326 325 324 323 321 320 318 316 315 314 313 313 313 313 313 313 313 312 311 310 310 310 310 310 310 309 308 308 307 306 305 305 304 302 301 300 300 300 300 300 300 300 300 299 299 299 300 300 300 300 300 300 301 301 300 300 300 300 300 300 300 300
327 326 324 323 322 320 319 317 316 314 313 313 313 312 312 312 311 311 310 309 309 310 309 309 309 308 308 307 306 306 305 304 303 301 300 300 300 300 299 299 299 299 299 299 299 299 299 299 299 299 300 299 300 300 300 300 300 300 300 300 299 300 299
326 325 323 321 320 319 318 316 315 313 313 313 312 312 311 310 309 309 309 309 309 309 309 309 308 308 307 306 306 304 303 302 300 299 299 300 300 299 299 299 299 299 298 298 298 298 298 298 299 299 299 299 299 300 299 299 300 299 299 299 299 299 299
326 324 322 320 319 318 317 315 314 313 313 312 312 311 310 309 308 309 308 308 308 308 308 308 307 307 306 305 304 303 301 300 299 299 299 299 299 299 298 298 298 298 298 297 297 298 298 298 298 298 299 299 299 299 299 299 299 299 299 299 299 299 299
325 324 321 319 318 316 315 314 314 313 312 312 311 311 310 309 309 308 308 307 307 307 307 307 306 305 305 303 302 301 299 299 299 299 298 298 298 298 298 298 298 298 297 297 298 298 298 298 298 298 298 299 299 299 299 299 299 299 299 299 299 299 298
324 322 320 319 317 315 313 313 313 312 311 310 310 310 310 309 309 308 307 307 306 306 305 305 305 304 303 301 300 299 299 298 298 298 298 298 298 298 298 298 297 297 297 298 298 298 298 298 298 298 298 298 298 298 299 299 298 299 299 298 298 298 298
321 320 318 317 316 314 312 312 311 310 310 309 310 309 309 309 308 307 306 306 305 305 304 304 303 302 301 300 299 299 298 298 298 298 298 298 298 298 298 298 298 298 298 298 298 298 298 298 298 298 298 298 298 298 298 299 298 298 298 298 298 298 298
320 318 317 316 314 313 312 310 309 309 308 308 308 309 309 308 307 306 306 305 305 304 303 302 301 300 300 299 299 298 298 298 298 298 298 298 298 298 298 298 298 298 298 298 298 298 298 298 298 298 298 298 298 298 298 298 298 298 298 298 298 298 298
318 317 316 314 313 312 311 309 308 307 307 306 306 308 308 307 306 306 305 304 304 303 302 301 300 299 299 299 298 298 298 298 298 298 298 298 298 298 298 298 298 298 298 298 298 298 298 298 298 298 298 298 298 298 298 298 298 298 298 298 298 298 298
317 315 314 312 311 310 309 307 307 306 306 305 305 307 307 307 306 305 304 304 303 302 301 299 298 299 299 299 298 298 298 298 298 298 298 298 298 297 297 297 297 297 297 297 297 297 297 297 297 297 298 298 298 298 298 298 298 297 297 297 297 297 297
315 314 312 310 308 307 307 306 306 305 304 303 304 306 307 306 305 305 304 303 302 301 299 298 298 299 299 298 298 298 298 298 298 298 298 297 297 296 296 296 296 296 296 296 296 296 296 296 296 297 297 297 297 297 297 297 297 297 297 297 297 297 297
314 312 310 308 307 306 306 305 305 304 302 302 304 306 306 305 305 304 303 303 301 299 297 297 298 298 298 298 298 298 298 297 297 297 296 296 296 296 296 296 296 296 295 295 295 295 296 296 296 296 296 296 296 297 297 297 297 297 297 297 297 297 297
313 310 308 306 306 305 305 304 304 303 300 300 304 306 305 305 304 303 303 302 299 297 297 297 298 298 298 298 298 298 297 297 296 296 296 296 296 296 296 296 296 296 296 295 295 295 296 296 296 296 296 296 296 296 296 296 296 296 297 297 296 296 297
311 309 306 305 305 304 304 303 302 300 298 300 304 305 305 304 303 303 302 300 298 297 298 298 298 298 298 298 298 297 297 297 296 296 296 296 296 295 295 296 296 296 296 295 295 295 296 296 296 296 296 296 296 296 296 295 296 296 296 296 296 296 296
309 307 305 304 303 303 301 300 298 297 298 301 305 305 304 304 303 302 302 300 298 298 299 298 298 298 298 298 298 297 297 297 296 296 296 295 295 295 296 296 296 296 295 295 295 295 295 296 296 296 296 296 295 295 295 295 295 295 295 295 295 295 296
306 305 304 303 302 301 299 297 297 297 299 302 304 304 304 304 302 302 301 299 298 298 299 299 299 298 298 298 298 297 297 297 296 296 295 295 295 296 296 296 296 296 295 295 295 295 295 295 295 296 296 295 295 295 295 295 294 295 295 295 295 295 295
305 304 303 303 302 300 298 297 297 299 300 302 304 304 304 303 302 302 301 300 299 299 300 300 299 299 299 298 298 297 297 296 296 296 295 295 296 296 296 296 296 295 295 295 295 295 295 295 295 295 295 295 295 294 294 294 294 294 294 294 294 294 294
304 304 303 302 302 300 298 297 298 300 301 302 302 303 303 303 302 302 301 300 300 300 300 300 300 300 299 299 298 297 297 296 296 295 295 295 296 296 296 296 295 295 295 295 294 295 294 294 294 295 295 295 295 295 294 294 294 294 294 294 294 294 294
304 303 303 302 302 300 297 297 299 300 301 301 302 302 302 302 302 302 301 301 300 300 300 300 300 300 300 299 298 297 297 296 295 295 296 296 296 296 296 296 295 295 295 294 294 294 293 293 294 295 295 295 295 295 295 294 294 293 293 293 293 293 293
304 303 302 302 301 299 296 297 299 300 300 301 301 301 302 302 302 302 301 301 301 301 301 301 300 300 300 299 298 297 296 295 295 296 296 296 296 296 295 295 295 295 294 294 293 293 293 292 293 295 295 295 295 295 295 295 295 294 294 293 293 293 293
303 302 302 301 299 297 296 297 299 300 300 300 301 301 301 301 301 301 301 301 301 301 301 301 301 300 300 300 298 297 296 295 295 296 296 297 297 296 295 295 295 294 294 294 292 292 292 292 293 294 295 295 295 295 295 295 295 295 294 294 293 293 293
303 302 301 300 298 296 296 297 298 299 300 300 300 300 301 301 301 301 301 301 301 301 301 301 301 301 300 300 298 297 295 295 296 296 297 297 297 296 295 295 294 294 294 293 292 291 291 292 293 294 294 294 295 295 295 295 295 295 295 294 294 293 294
303 302 300 299 298 296 296 296 297 298 299 300 300 300 300 301 301 301 301 301 301 301 301 301 301 301 300 300 299 297 296 295 296 296 296 297 296 295 295 295 294 293 293 293 292 291 291 291 292 293 294 294 294 294 295 295 295 295 295 295 295 294 294
303 302 301 300 299 298 296 295 296 297 298 299 300 300 300 300 300 300 301 301 301 301 301 301 301 301 300 300 299 298 297 296 296 296 296 296 296 295 295 294 293 293 292 292 292 291 290 291 292 293 293 293 294 294 294 295 295 295 295 295 295 295 295
303 302 301 301 301 299 296 295 296 296 298 299 299 299 300 300 300 300 301 301 301 301 301 300 301 300 300 300 299 298 298 297 296 296 296 296 295 294 294 294 293 293 292 292 292 291 290 290 291 293 293 293 293 294 294 294 295 295 295 295 295 295 295
303 303 302 302 301 299 297 295 295 296 297 298 298 299 299 299 299 300 300 300 301 301 300 300 300 300 299 299 299 298 298 297 296 296 296 296 295 294 294 294 294 293 292 291 291 291 290 290 291 292 292 292 293 293 293 294 294 294 295 295 294 294 295
304 303 303 303 302 300 297 296 295 295 296 297 297 298 298 298 298 299 299 299 300 300 300 299 299 299 299 299 299 298 298 297 296 295 296 295 295 294 293 293 293 293 292 291 291 291 290 290 290 291 292 292 292 292 293 293 294 294 294 294 294 294 294
305 304 304 303 302 300 299 297 295 295 295 296 296 296 296 297 297 297 297 297 298 298 299 299 299 299 299 299 299 298 298 296 295 296 296 295 295 295 294 293 293 293 292 292 291 291 290 289 289 290 291 291 292 292 292 293 293 294 294 294 294 294 294
304 304 304 303 302 301 301 299 297 295 295 295 295 295 295 295 295 295 295 295 296 296 296 297 298 298 299 299 298 298 297 295 295 296 296 295 295 295 294 294 293 293 293 292 291 291 290 289 289 290 290 291 291 292 292 292 293 293 294 294 294 293 293
304 304 304 304 303 302 302 301 299 295 294 295 295 294 295 295 295 295 295 295 295 295 295 295 295 296 297 297 297 297 296 295 295 295 295 295 295 294 294 294 293 293 293 293 292 290 290 289 289 289 290 290 291 291 291 291 292 293 293 293 292 292 292
304 304 304 304 303 303 302 302 301 297 294 295 296 296 295 295 295 295 295 295 295 295 295 294 294 294 295 295 295 295 295 295 295 295 295 295 295 294 294 294 293 293 293 293 292 291 289 289 289 289 289 289 290 290 291 291 291 291 292 292 291 290 291